TimeEDT,TemperatureF,Dew PointF,Humidity,Sea Level PressureIn,VisibilityMPH,Wind Direction,Wind SpeedMPH,Gust SpeedMPH,PrecipitationIn,Events,Conditions,WindDirDegrees,DateUTC
12:15 AM,49.5,47.1,92,30.30,0.2,Calm,Calm,-,N/A,Fog,Fog,0,2013-10-15 04:15:00
12:35 AM,50.7,48.4,92,30.30,2.0,Calm,Calm,-,N/A,,Overcast,0,2013-10-15 04:35:00
12:55 AM,49.6,47.3,92,30.30,0.5,Calm,Calm,-,N/A,Fog,Fog,0,2013-10-15 04:55:00
1:15 AM,50.2,48.0,92,30.30,0.2,Calm,Calm,-,N/A,Fog,Fog,0,2013-10-15 05:15:00
1:35 AM,51.1,48.7,92,30.30,5.0,NE,3.5,-,N/A,,Overcast,40,2013-10-15 05:35:00
1:55 AM,50.9,48.6,92,30.30,3.0,Calm,Calm,-,N/A,,Overcast,0,2013-10-15 05:55:00
2:15 AM,50.9,48.6,92,30.29,5.0,Calm,Calm,-,N/A,,Mostly Cloudy,0,2013-10-15 06:15:00
2:35 AM,49.1,46.8,92,30.28,0.2,Calm,Calm,-,N/A,Fog,Fog,0,2013-10-15 06:35:00
2:55 AM,49.1,46.8,92,30.28,0.2,Calm,Calm,-,N/A,,Light Drizzle,0,2013-10-15 06:55:00
3:15 AM,47.7,45.3,92,30.28,0.2,Calm,Calm,-,N/A,,Drizzle,0,2013-10-15 07:15:00
3:35 AM,48.0,45.7,92,30.28,0.2,Calm,Calm,-,N/A,,Light Drizzle,0,2013-10-15 07:35:00
3:55 AM,48.4,46.0,92,30.29,0.2,Calm,Calm,-,N/A,Fog,Fog,0,2013-10-15 07:55:00
4:15 AM,48.7,46.4,92,30.29,0.2,Calm,Calm,-,N/A,Fog,Fog,0,2013-10-15 08:15:00
4:35 AM,48.6,46.4,92,30.29,0.2,Calm,Calm,-,N/A,Fog,Fog,0,2013-10-15 08:35:00
4:55 AM,49.1,46.8,92,30.29,0.2,Calm,Calm,-,N/A,Fog,Fog,0,2013-10-15 08:55:00
5:15 AM,49.1,46.8,92,30.29,0.2,Calm,Calm,-,N/A,Fog,Fog,0,2013-10-15 09:15:00
5:35 AM,48.9,46.6,92,30.30,0.2,Calm,Calm,-,N/A,Fog,Fog,0,2013-10-15 09:35:00
5:55 AM,48.4,46.0,92,30.30,0.2,Calm,Calm,-,N/A,Fog,Fog,0,2013-10-15 09:55:00
6:15 AM,48.4,46.0,92,30.29,0.2,Calm,Calm,-,N/A,Fog,Fog,0,2013-10-15 10:15:00
6:35 AM,48.4,46.0,92,30.30,0.2,Calm,Calm,-,N/A,Fog,Fog,0,2013-10-15 10:35:00
6:55 AM,48.4,46.0,92,30.29,0.2,Calm,Calm,-,N/A,Fog,Fog,0,2013-10-15 10:55:00
7:15 AM,48.0,45.7,92,30.29,0.2,Calm,Calm,-,N/A,Fog,Fog,0,2013-10-15 11:15:00
7:35 AM,48.2,45.9,92,30.30,0.2,Calm,Calm,-,N/A,Fog,Fog,0,2013-10-15 11:35:00
7:55 AM,48.2,45.9,92,30.30,0.2,Calm,Calm,-,N/A,Fog,Fog,0,2013-10-15 11:55:00
8:15 AM,49.1,46.8,92,30.30,0.2,Calm,Calm,-,N/A,Fog,Fog,0,2013-10-15 12:15:00
8:35 AM,48.7,46.4,92,30.30,0.2,Calm,Calm,-,N/A,Rain,Light Rain,0,2013-10-15 12:35:00
8:55 AM,48.7,46.4,92,30.29,0.2,Calm,Calm,-,N/A,,Light Drizzle,0,2013-10-15 12:55:00
9:15 AM,49.3,47.1,92,30.29,0.2,Calm,Calm,-,N/A,Fog,Fog,0,2013-10-15 13:15:00
9:35 AM,49.6,47.3,92,30.29,0.2,Calm,Calm,-,N/A,Fog,Fog,0,2013-10-15 13:35:00
9:55 AM,51.1,48.7,92,30.28,0.2,Calm,Calm,-,N/A,Fog,Fog,0,2013-10-15 13:55:00
10:15 AM,51.1,48.7,92,30.28,0.2,Calm,Calm,-,N/A,Fog,Fog,0,2013-10-15 14:15:00
10:35 AM,51.8,49.3,91,30.29,0.2,South,6.9,-,N/A,Fog,Fog,190,2013-10-15 14:35:00
10:55 AM,52.7,50.4,92,30.29,2.0,SE,6.9,-,N/A,,Overcast,140,2013-10-15 14:55:00
11:15 AM,52.7,50.4,92,30.28,0.2,SE,3.5,-,N/A,Fog,Fog,130,2013-10-15 15:15:00
11:35 AM,54.5,52.2,92,30.27,5.0,ESE,3.5,-,N/A,,Mostly Cloudy,110,2013-10-15 15:35:00
11:55 AM,55.4,53.1,92,30.27,10.0,SSE,3.5,-,N/A,,Scattered Clouds,150,2013-10-15 15:55:00
12:15 PM,55.8,53.6,92,30.26,10.0,Calm,Calm,-,N/A,,Scattered Clouds,0,2013-10-15 16:15:00
12:35 PM,56.8,54.3,91,30.26,10.0,Calm,Calm,-,N/A,,Clear,0,2013-10-15 16:35:00
12:55 PM,59.9,56.1,87,30.25,10.0,ESE,4.6,-,N/A,,Mostly Cloudy,120,2013-10-15 16:55:00
1:15 PM,62.6,49.5,62,30.24,10.0,SE,4.6,-,N/A,,Scattered Clouds,140,2013-10-15 17:15:00
1:35 PM,63.3,49.3,60,30.23,10.0,SSE,6.9,-,N/A,,Scattered Clouds,160,2013-10-15 17:35:00
1:55 PM,61.7,50.0,65,30.23,10.0,South,4.6,-,N/A,,Mostly Cloudy,170,2013-10-15 17:55:00
2:15 PM,62.2,49.6,63,30.22,10.0,SSE,3.5,-,N/A,,Overcast,150,2013-10-15 18:15:00
2:35 PM,63.5,49.3,60,30.21,10.0,SSE,4.6,-,N/A,,Overcast,160,2013-10-15 18:35:00
2:55 PM,63.5,49.3,60,30.21,10.0,SSE,6.9,-,N/A,,Overcast,150,2013-10-15 18:55:00
3:15 PM,64.2,50.5,61,30.20,10.0,SE,4.6,-,N/A,,Overcast,140,2013-10-15 19:15:00
3:35 PM,64.8,50.2,59,30.20,10.0,SSE,9.2,-,N/A,,Mostly Cloudy,160,2013-10-15 19:35:00
3:55 PM,63.5,50.4,62,30.19,10.0,SSE,5.8,-,N/A,,Mostly Cloudy,160,2013-10-15 19:55:00
4:15 PM,62.6,50.5,65,30.19,10.0,South,6.9,-,N/A,,Scattered Clouds,180,2013-10-15 20:15:00
4:35 PM,63.7,50.7,63,30.19,10.0,South,3.5,-,N/A,,Mostly Cloudy,190,2013-10-15 20:35:00
4:55 PM,61.9,50.2,65,30.19,10.0,South,4.6,-,N/A,,Overcast,180,2013-10-15 20:55:00
5:15 PM,61.7,50.5,67,30.19,10.0,Calm,Calm,-,N/A,,Overcast,0,2013-10-15 21:15:00
5:35 PM,61.2,50.5,68,30.19,10.0,South,5.8,-,N/A,,Overcast,190,2013-10-15 21:35:00
5:55 PM,60.8,50.2,68,30.19,10.0,South,6.9,-,N/A,,Overcast,190,2013-10-15 21:55:00
6:15 PM,60.6,50.0,68,30.19,10.0,South,5.8,-,N/A,,Overcast,190,2013-10-15 22:15:00
6:35 PM,59.9,50.0,70,30.19,10.0,South,8.1,-,N/A,,Overcast,170,2013-10-15 22:35:00
6:55 PM,59.0,50.0,72,30.19,10.0,South,6.9,-,N/A,,Mostly Cloudy,180,2013-10-15 22:55:00
7:15 PM,59.0,49.5,71,30.19,10.0,South,8.1,-,N/A,,Mostly Cloudy,180,2013-10-15 23:15:00
7:35 PM,58.6,49.5,72,30.19,10.0,South,9.2,-,N/A,,Overcast,180,2013-10-15 23:35:00
7:55 PM,59.0,49.5,71,30.19,10.0,South,8.1,-,N/A,,Overcast,170,2013-10-15 23:55:00
8:15 PM,58.5,49.6,72,30.19,10.0,South,8.1,-,N/A,,Overcast,180,2013-10-16 00:15:00
8:55 PM,57.4,49.5,75,30.19,10.0,SSW,3.5,-,N/A,,Overcast,200,2013-10-16 00:55:00
9:15 PM,57.6,49.5,74,30.19,10.0,South,5.8,-,N/A,,Overcast,180,2013-10-16 01:15:00
9:35 PM,57.4,49.5,75,30.19,10.0,South,4.6,-,N/A,,Overcast,190,2013-10-16 01:35:00
9:55 PM,56.7,49.5,77,30.19,10.0,South,4.6,-,N/A,,Overcast,190,2013-10-16 01:55:00
10:15 PM,56.5,49.6,78,30.19,10.0,South,3.5,-,N/A,,Overcast,170,2013-10-16 02:15:00
10:35 PM,55.8,49.5,79,30.18,10.0,SSE,4.6,-,N/A,,Overcast,150,2013-10-16 02:35:00
10:55 PM,56.3,49.6,78,30.18,10.0,SSE,3.5,-,N/A,,Overcast,160,2013-10-16 02:55:00
11:15 PM,56.3,50.0,79,30.18,10.0,SSE,3.5,-,N/A,,Overcast,150,2013-10-16 03:15:00
11:35 PM,55.8,50.0,81,30.17,10.0,SSE,3.5,-,N/A,,Overcast,150,2013-10-16 03:35:00
11:55 PM,55.6,50.0,81,30.16,10.0,SSE,4.6,-,N/A,,Overcast,160,2013-10-16 03:55:00